This demonstration page uses our WeatherBlox Daily Observations layout. Learn more.

Left ArrowRight Arrow

Hourly Observations for July 25, 2017

Temp ( °F °C ) Dew Point ( °F °C ) Humidity (%) Winds ( mph kmh ) Pressure ( in mb ) Visibility ( mi km ) Precip ( " mm )
12:53 am 00:53 Clear 78 25.6 68 20 71 71 SSE 9 15 29.93 1014 10 16 0.00 0.00
1:53 am 01:53 Clear 78 25.6 66 18.9 67 67 S 10 17 29.93 1014 10 16 0.00 0.00
2:53 am 02:53 Clear 75 23.9 66 18.9 74 74 S 8 13 29.92 1013 10 16 0.00 0.00
3:53 am 03:53 Clear 73 22.8 66 18.9 79 79 S 6 9 29.92 1013 10 16 0.00 0.00
4:53 am 04:53 Clear 73 22.8 65 18.3 76 76 S 7 11 29.93 1014 10 16 0.00 0.00
5:53 am 05:53 Clear 72 22.2 65 18.3 79 79 S 7 11 29.94 1014 10 16 0.00 0.00
6:53 am 06:53 Sunny 72 22.2 64 17.8 76 76 S 8 13 29.96 1015 10 16 0.00 0.00
7:53 am 07:53 Sunny 73 22.8 65 18.3 76 76 S 8 13 29.96 1015 10 16 0.00 0.00
8:53 am 08:53 Sunny 78 25.6 66 18.9 67 67 SSW 9 15 29.96 1015 10 16 0.00 0.00
9:53 am 09:53 Sunny 82 27.8 68 20 63 63 S 12 19 29.96 1015 10 16 0.00 0.00
10:53 am 10:53 Sunny 87 30.6 69 20.6 55 55 S 12 19 29.95 1014 10 16 0.00 0.00
11:53 am 11:53 Sunny 89 31.7 67 19.4 48 48 S 17 28 29.95 1014 10 16 0.00 0.00
12:53 pm 12:53 Sunny 90 32.2 66 18.9 45 45 S 13 20 29.94 1014 10 16 0.00 0.00
1:53 pm 13:53 Sunny 92 33.3 67 19.4 44 44 S 15 24 29.93 1014 10 16 0.00 0.00
2:53 pm 14:53 Sunny 93 33.9 67 19.4 42 42 SSE 14 22 29.93 1013 10 16 0.00 0.00
3:53 pm 15:53 Sunny 95 35 64 17.8 36 36 S 15 24 29.91 1013 10 16 0.00 0.00
4:53 pm 16:53 Sunny 96 35.6 62 16.7 32 32 SSE 12 19 29.90 1013 10 16 0.00 0.00
5:53 pm 17:53 Sunny 94 34.4 62 16.7 35 35 SSE 15 24 29.87 1012 10 16 0.00 0.00
6:53 pm 18:53 Sunny 91 32.8 66 18.9 44 44 SSE 15 24 29.85 1011 10 16 0.00 0.00
7:53 pm 19:53 Sunny 88 31.1 66 18.9 48 48 SE 14 22 29.86 1011 10 16 0.00 0.00
8:53 pm 20:53 Sunny 86 30 64 17.8 48 48 SSE 14 22 29.87 1011 10 16 0.00 0.00
9:53 pm 21:53 Clear 84 28.9 63 17.2 49 49 SSE 14 22 29.87 1012 10 16 0.00 0.00
10:53 pm 22:53 Clear 82 27.8 65 18.3 56 56 SSE 14 22 29.87 1012 10 16 0.00 0.00
11:53 pm 23:53 Clear 83 28.3 66 18.9 57 57 SSE 12 19 29.88 1012 10 16 0.00 0.00

Powered by AerisWeather